timestamp,wind_dir_avg,wind_spd_avg,wind_spd_max_dir,wind_spd_gust,battery_voltage,lat,long
2023-03-05 00:04:00+00:00,319.0,9.73,323.0,11.15,12.41,47.59359,-54.27349
2023-03-05 00:14:01+00:00,319.0,10.1,321.0,12.29,12.33,47.59359,-54.27349
2023-03-05 00:24:01+00:00,320.0,9.24,320.0,10.58,12.33,47.59359,-54.27349
2023-03-05 00:34:01+00:00,319.0,10.89,328.0,12.99,12.33,47.59359,-54.27349
2023-03-05 00:44:01+00:00,317.0,10.0,319.0,12.63,12.33,47.59359,-54.27349
2023-03-05 00:54:01+00:00,313.0,9.98,313.0,11.77,12.33,47.59359,-54.27349
2023-03-05 01:04:01+00:00,317.0,11.11,313.0,12.96,12.33,47.59359,-54.27349
2023-03-05 01:14:00+00:00,315.0,11.16,311.0,13.08,12.25,47.59359,-54.27349
2023-03-05 01:24:00+00:00,316.0,11.25,311.0,13.82,12.25,47.59359,-54.27349
2023-03-05 01:34:00+00:00,311.0,10.18,312.0,11.91,12.25,47.59359,-54.27349
2023-03-05 01:44:00+00:00,308.0,11.12,306.0,12.7,12.25,47.59359,-54.27349
2023-03-05 01:54:00+00:00,306.0,11.06,306.0,13.05,12.25,47.59359,-54.27349
2023-03-05 02:04:00+00:00,312.0,12.73,316.0,15.53,12.25,47.59359,-54.27349
2023-03-05 02:14:00+00:00,309.0,10.62,307.0,12.78,12.25,47.59359,-54.27349
2023-03-05 02:24:00+00:00,309.0,11.71,311.0,14.32,12.25,47.59359,-54.27349
2023-03-05 02:34:00+00:00,305.0,10.8,306.0,13.52,12.25,47.59359,-54.27349
2023-03-05 02:44:00+00:00,313.0,9.71,308.0,10.75,12.25,47.59359,-54.27349
2023-03-05 02:54:00+00:00,314.0,9.81,303.0,12.96,12.25,47.59359,-54.27349
2023-03-05 03:04:00+00:00,309.0,9.69,299.0,12.59,12.25,47.59359,-54.27349
2023-03-05 03:14:00+00:00,312.0,10.67,307.0,13.07,12.17,47.59359,-54.27349
2023-03-05 03:24:00+00:00,307.0,10.05,317.0,13.24,12.17,47.59359,-54.27349
2023-03-05 03:34:00+00:00,305.0,8.33,307.0,10.21,12.17,47.59359,-54.27349
2023-03-05 03:44:00+00:00,294.0,9.05,299.0,11.79,12.17,47.59359,-54.27349
2023-03-05 03:54:00+00:00,298.0,10.43,296.0,13.51,12.17,47.59359,-54.27349
2023-03-05 04:04:00+00:00,310.0,8.99,314.0,10.42,12.17,47.59359,-54.27349
2023-03-05 04:14:00+00:00,297.0,10.01,300.0,12.65,12.17,47.59359,-54.27349
2023-03-05 04:24:00+00:00,300.0,7.7,296.0,10.83,12.17,47.59359,-54.27349
2023-03-05 04:34:00+00:00,297.0,8.42,294.0,11.41,12.17,47.59359,-54.27349
2023-03-05 04:44:00+00:00,293.0,9.86,297.0,11.73,12.17,47.59359,-54.27349
2023-03-05 04:54:00+00:00,298.0,9.14,287.0,11.47,12.17,47.59359,-54.27349
2023-03-05 05:04:00+00:00,306.0,9.37,300.0,11.61,12.17,47.59359,-54.27349
2023-03-05 05:14:00+00:00,302.0,9.79,302.0,12.84,12.17,47.59359,-54.27349
2023-03-05 05:24:00+00:00,292.0,10.49,300.0,11.94,12.17,47.59359,-54.27349
2023-03-05 05:34:00+00:00,295.0,10.35,299.0,12.56,12.17,47.59359,-54.27349
2023-03-05 05:44:00+00:00,294.0,9.8,291.0,11.74,12.17,47.59359,-54.27349
2023-03-05 05:54:00+00:00,300.0,9.45,298.0,11.19,12.17,47.59359,-54.27349
2023-03-05 06:04:00+00:00,298.0,8.48,295.0,11.46,12.17,47.59359,-54.27349
2023-03-05 06:14:00+00:00,302.0,8.66,312.0,10.92,12.09,47.59359,-54.27349
2023-03-05 06:24:00+00:00,295.0,9.34,293.0,11.48,12.09,47.59359,-54.27349
2023-03-05 06:34:00+00:00,282.0,8.67,280.0,10.7,12.09,47.59359,-54.27349
2023-03-05 06:44:00+00:00,286.0,9.61,283.0,11.01,12.09,47.59359,-54.27349
2023-03-05 06:54:00+00:00,286.0,8.63,283.0,10.8,12.09,47.59359,-54.27349
2023-03-05 07:04:00+00:00,295.0,9.07,292.0,11.14,12.09,47.59359,-54.27349
2023-03-05 07:14:00+00:00,297.0,9.25,298.0,11.87,12.09,47.59359,-54.27349
2023-03-05 07:24:00+00:00,302.0,8.61,295.0,11.0,12.09,47.59359,-54.27349
2023-03-05 07:34:00+00:00,298.0,8.52,296.0,11.2,12.09,47.59359,-54.27349
2023-03-05 07:44:00+00:00,299.0,8.42,302.0,11.44,12.09,47.59359,-54.27349
2023-03-05 07:54:00+00:00,301.0,8.46,298.0,11.63,12.09,47.59359,-54.27349
2023-03-05 08:04:00+00:00,290.0,8.14,287.0,10.43,12.09,47.59359,-54.27349
2023-03-05 08:14:01+00:00,306.0,6.77,297.0,10.45,12.01,47.59359,-54.27349
2023-03-05 08:24:01+00:00,305.0,5.44,306.0,6.42,12.01,47.59359,-54.27349
2023-03-05 08:34:01+00:00,304.0,5.78,299.0,7.22,12.01,47.59359,-54.27349
2023-03-05 08:44:01+00:00,294.0,6.26,289.0,9.97,12.01,47.59359,-54.27349
2023-03-05 08:54:01+00:00,296.0,7.4,296.0,10.41,12.01,47.59359,-54.27349
2023-03-05 09:04:01+00:00,298.0,7.21,291.0,10.35,12.01,47.59359,-54.27349
2023-03-05 09:14:00+00:00,299.0,7.65,294.0,11.08,12.01,47.59359,-54.27349
2023-03-05 09:24:00+00:00,298.0,7.47,296.0,10.39,12.01,47.59359,-54.27349
2023-03-05 09:34:00+00:00,289.0,6.65,281.0,9.55,12.01,47.59359,-54.27349
2023-03-05 09:44:00+00:00,298.0,6.85,284.0,10.75,12.01,47.59359,-54.27349
2023-03-05 09:54:00+00:00,300.0,6.47,286.0,9.75,12.01,47.59359,-54.27349
2023-03-05 10:04:00+00:00,301.0,6.4,294.0,10.1,12.01,47.59359,-54.27349
2023-03-05 10:14:00+00:00,285.0,6.56,272.0,9.81,12.01,47.59359,-54.27349
2023-03-05 10:24:00+00:00,290.0,5.56,288.0,8.99,12.01,47.59359,-54.27349
2023-03-05 10:34:00+00:00,276.0,6.3,280.0,10.26,12.01,47.59359,-54.27349
2023-03-05 10:44:00+00:00,277.0,6.27,276.0,9.74,12.01,47.59359,-54.27349
2023-03-05 10:54:00+00:00,274.0,5.38,265.0,8.06,12.01,47.59359,-54.27349
2023-03-05 11:04:00+00:00,269.0,5.45,273.0,7.67,12.01,47.59359,-54.27349
2023-03-05 11:14:00+00:00,274.0,5.38,278.0,9.02,13.84,47.59359,-54.27349
2023-03-05 11:24:00+00:00,276.0,6.59,274.0,9.9,13.84,47.59359,-54.27349
2023-03-05 11:34:00+00:00,277.0,4.72,278.0,7.31,13.84,47.59359,-54.27349
2023-03-05 11:44:00+00:00,277.0,4.59,273.0,5.44,13.84,47.59359,-54.27349
2023-03-05 11:54:00+00:00,280.0,4.17,272.0,5.44,13.84,47.59359,-54.27349
2023-03-05 12:04:00+00:00,285.0,4.52,278.0,8.15,13.84,47.59359,-54.27349
2023-03-05 12:14:00+00:00,278.0,4.26,271.0,4.85,14.4,47.59359,-54.27349
2023-03-05 12:24:00+00:00,276.0,4.12,278.0,4.62,14.4,47.59359,-54.27349
2023-03-05 12:34:00+00:00,261.0,1.46,273.0,4.42,14.4,47.59359,-54.27349
2023-03-05 12:44:00+00:00,258.0,4.33,258.0,4.88,14.4,47.59359,-54.27349
2023-03-05 12:54:00+00:00,246.0,2.11,260.0,4.25,14.4,47.59359,-54.27349
2023-03-05 13:04:00+00:00,351.0,0.54,277.0,3.33,14.4,47.59359,-54.27349
2023-03-05 13:14:00+00:00,238.0,2.5,254.0,4.28,13.68,47.59359,-54.27349
2023-03-05 13:24:00+00:00,244.0,2.24,256.0,3.82,13.68,47.59359,-54.27349
2023-03-05 13:34:00+00:00,250.0,3.1,255.0,3.91,13.68,47.59359,-54.27349
2023-03-05 13:44:00+00:00,211.0,2.26,232.0,4.24,13.68,47.59359,-54.27349
2023-03-05 13:54:00+00:00,215.0,3.4,227.0,5.28,13.68,47.59359,-54.27349
2023-03-05 14:04:00+00:00,227.0,4.1,222.0,5.6,13.68,47.59359,-54.27349
2023-03-05 14:14:00+00:00,227.0,3.08,239.0,5.07,13.68,47.59359,-54.27349
2023-03-05 14:24:00+00:00,232.0,4.7,246.0,6.97,13.68,47.59359,-54.27349
2023-03-05 14:34:00+00:00,237.0,3.34,236.0,5.07,13.68,47.59359,-54.27349
2023-03-05 14:44:00+00:00,262.0,3.32,268.0,4.21,13.68,47.59359,-54.27349
2023-03-05 14:54:00+00:00,213.0,2.86,246.0,6.58,13.68,47.59359,-54.27349
2023-03-05 15:04:00+00:00,237.0,5.4,241.0,7.62,13.68,47.59359,-54.27349
2023-03-05 15:14:00+00:00,209.0,3.89,207.0,5.93,13.6,47.59359,-54.27349
2023-03-05 15:24:00+00:00,226.0,4.32,226.0,5.77,13.6,47.59359,-54.27349
2023-03-05 15:34:00+00:00,215.0,3.77,224.0,4.68,13.6,47.59359,-54.27349
2023-03-05 15:44:00+00:00,233.0,5.88,231.0,7.61,13.6,47.59359,-54.27349
2023-03-05 15:54:00+00:00,250.0,5.61,244.0,7.12,13.6,47.59359,-54.27349
2023-03-05 16:04:00+00:00,219.0,5.41,229.0,7.19,13.6,47.59359,-54.27349
2023-03-05 16:14:00+00:00,237.0,5.51,235.0,7.19,13.68,47.59359,-54.27349
2023-03-05 16:24:00+00:00,221.0,5.61,235.0,7.04,13.68,47.59359,-54.27349
2023-03-05 16:34:00+00:00,239.0,5.59,237.0,7.0,13.68,47.59359,-54.27349
2023-03-05 16:44:00+00:00,237.0,4.71,240.0,6.08,13.68,47.59359,-54.27349
2023-03-05 16:54:00+00:00,239.0,5.45,240.0,6.54,13.68,47.59359,-54.27349
2023-03-05 17:04:00+00:00,230.0,4.71,239.0,6.34,13.68,47.59359,-54.27349
2023-03-05 17:14:00+00:00,226.0,2.47,234.0,3.14,13.68,47.59359,-54.27349
2023-03-05 17:24:00+00:00,232.0,3.04,254.0,5.21,13.68,47.59359,-54.27349
2023-03-05 17:34:00+00:00,244.0,5.43,244.0,7.04,13.68,47.59359,-54.27349
2023-03-05 17:44:00+00:00,210.0,4.05,228.0,5.89,13.68,47.59359,-54.27349
2023-03-05 17:54:00+00:00,218.0,5.54,242.0,7.19,13.68,47.59359,-54.27349
2023-03-05 18:04:00+00:00,222.0,8.16,223.0,8.85,13.68,47.59359,-54.27349
2023-03-05 18:14:01+00:00,198.0,5.51,216.0,7.05,13.68,47.59359,-54.27349
2023-03-05 18:24:01+00:00,218.0,6.43,232.0,7.84,13.68,47.59359,-54.27349
2023-03-05 18:34:01+00:00,207.0,6.71,214.0,7.67,13.68,47.59359,-54.27349
2023-03-05 18:44:01+00:00,210.0,6.73,209.0,8.27,13.68,47.59359,-54.27349
2023-03-05 18:54:01+00:00,205.0,8.98,213.0,10.3,13.68,47.59359,-54.27349
2023-03-05 19:04:01+00:00,207.0,8.4,218.0,9.54,13.68,47.59359,-54.27349
2023-03-05 20:14:00+00:00,230.0,6.89,237.0,9.82,12.81,47.59359,-54.27349
2023-03-05 20:24:00+00:00,230.0,4.32,246.0,7.01,12.81,47.59359,-54.27349
2023-03-05 20:34:00+00:00,227.0,5.15,247.0,9.48,12.81,47.59359,-54.27349
2023-03-05 20:44:00+00:00,235.0,3.04,244.0,3.93,12.81,47.59359,-54.27349
2023-03-05 20:54:00+00:00,232.0,3.27,237.0,4.16,12.81,47.59359,-54.27349
2023-03-05 21:04:00+00:00,214.0,4.08,210.0,4.81,12.81,47.59359,-54.27349
2023-03-05 21:14:00+00:00,216.0,4.33,231.0,5.74,12.41,47.59359,-54.27349
2023-03-05 21:24:00+00:00,223.0,4.52,249.0,8.29,12.41,47.59359,-54.27349
2023-03-05 21:34:00+00:00,203.0,5.98,215.0,7.33,12.41,47.59359,-54.27349
2023-03-05 21:44:00+00:00,217.0,5.22,223.0,6.34,12.41,47.59359,-54.27349
2023-03-05 21:54:00+00:00,224.0,5.57,219.0,6.79,12.41,47.59359,-54.27349
2023-03-05 22:04:00+00:00,212.0,6.78,217.0,7.47,12.41,47.59359,-54.27349
2023-03-05 22:14:00+00:00,219.0,6.35,219.0,6.99,12.33,47.59359,-54.27349
2023-03-05 22:24:00+00:00,218.0,5.4,231.0,7.18,12.33,47.59359,-54.27349
2023-03-05 22:34:00+00:00,213.0,5.86,217.0,7.3,12.33,47.59359,-54.27349
2023-03-05 22:44:00+00:00,221.0,5.53,220.0,6.54,12.33,47.59359,-54.27349
2023-03-05 22:54:00+00:00,219.0,5.41,218.0,6.05,12.33,47.59359,-54.27349
2023-03-05 23:04:00+00:00,220.0,6.34,220.0,7.16,12.33,47.59359,-54.27349
2023-03-05 23:14:00+00:00,213.0,5.65,219.0,7.29,12.25,47.59359,-54.27349
2023-03-05 23:24:00+00:00,227.0,5.58,216.0,6.79,12.25,47.59359,-54.27349
2023-03-05 23:34:00+00:00,219.0,5.53,212.0,7.55,12.25,47.59359,-54.27349
2023-03-05 23:44:00+00:00,213.0,6.81,208.0,7.56,12.25,47.59359,-54.27349
2023-03-05 23:54:00+00:00,215.0,7.06,210.0,8.22,12.25,47.59359,-54.27349
